Regional Weather Roundup
Issued by NWS

Home | Current Version | Previous Version | Text Only | Print | Product List | Glossary On
Versions: 1 2 3 4 5 6 7 8 9 10 11 12 13 14 15 16 17 18 19 20 21 22 23 24 25 26 27 28 29 30 31 32 33 34 35 36 37 38 39 40 41 42 43 44 45 46 47 48 49 50
000
ASUS43 KMPX 282201
RWRMN
WEATHER ROUNDUP FOR MINNESOTA
NATIONAL WEATHER SERVICE TWIN CITIES/CHANHASSEN MN
500 PM CDT THU MAY 28 2015


NOTE: "FAIR" INDICATES FEW OR NO CLOUDS BELOW 12,000 FEET WITH NO
SIGNIFICANT WEATHER AND/OR OBSTRUCTIONS TO VISIBILITY. N/A MEANS
CURRENT SKY AND/OR WEATHER CONDITIONS ARE NOT AVAILABLE.

MNZ060>063-068>070-282300-
   Twin Cities Metro

CITY           SKY/WX    TMP DP  RH WIND       PRES   REMARKS
TWIN CITIES    PTSUNNY   83  48  29 S23       29.97F
ST PAUL        MOSUNNY   84  54  35 S16G24    29.97F
CRYSTAL        MOSUNNY   85  52  32 S14G28    29.95F
BLAINE         MOSUNNY   84  54  34 SE20G28   29.96F
LAKEVILLE      MOSUNNY   79  52  38 S10G20      N/A
EDEN PRAIRIE   MOSUNNY   83  53  35 S21G28    29.95F
SOUTH ST PAUL  MOSUNNY   83  47  28 S9G26     29.97F
LAKE ELMO      FAIR      81  55  41 S20G25    29.99F
$$
MNZ001>005-007-008-013>017-022>024-027-028-282300-
   Northwest Minnesota

CITY           SKY/WX    TMP DP  RH WIND       PRES   REMARKS
BEMIDJI        MOSUNNY   78  54  43 S17G25    29.83F
HALLOCK        LGT RAIN  72  64  78 E7        29.77F
ROSEAU         PTSUNNY   72  61  68 CALM      29.81F
WARROAD        MOSUNNY   66  61  82 NE8       29.83F
THIEF RVR FALL CLOUDY    64  61  88 S30       29.78F THUNDER
CROOKSTON      TSTM      73  66  78 W13       29.76F
FOSSTON        MOSUNNY   75  57  53 S23G29    29.80S
DETROIT LAKES  MOSUNNY   79  55  44 S17G23    29.83F
MOORHEAD       PTSUNNY   81  57  44 S12G18    29.77F
PARK RAPIDS    MOSUNNY   84  45  25 S26G35    29.85F
MAHNOMEN       FAIR      78  57  49 S26G35    29.80F
$$
MNZ006-009>011-018-025>026-282300-
   North Central Minnesota

CITY           SKY/WX    TMP DP  RH WIND       PRES   REMARKS
BAUDETTE       PTSUNNY   66  60  81 SE8       29.84F
FLAG ISLAND    PTSUNNY   59  55  88 S7        29.83F
INTL FALLS     PTSUNNY   63  55  75 N8        29.87F
WASKISH        PTSUNNY   66  63  88 CALM      29.84F THUNDER
BIG FORK       MOSUNNY  N/A N/A N/A SW20G26   29.86S
LONGVILLE      MOSUNNY   81  48  32 S18G30    29.88F
GRAND RAPIDS   MOSUNNY   81  50  34 S22G32    29.89F
CRANE LAKE     PTSUNNY   75  54  46 S7        29.88F
COOK           MOSUNNY   79  54  41 S15G23    29.89F
WALKER         FAIR      80  51  36 S18G28    29.86F
$$
MNZ012-019>021-037-282300-
   Northeast Minnesota

CITY           SKY/WX    TMP DP  RH WIND       PRES   REMARKS
DULUTH         MOSUNNY   49  44  83 E14       29.99F
HIBBING        MOSUNNY   78  53  41 S10G18    29.90F
EVELETH        MOSUNNY   77  54  44 S14G21    29.93F
DULUTH HARBOR  CLOUDY    45  43  93 NE15      30.04F
TWO HARBORS    MOSUNNY   55  48  76 E10       30.00F
SILVER BAY     MOSUNNY   50  45  81 NE12      30.01F
GRAND MARAIS     N/A     46  41  82 E10G20    30.02F
G MARAIS ARPRT MOSUNNY   61  48  63 SE5       30.03F
$$
MNZ029>031-032-039>041-046>048-054>057-064-282300-
   West Central Minnesota

CITY           SKY/WX    TMP DP  RH WIND       PRES   REMARKS
FERGUS FALLS   MOSUNNY   82  57  42 S24G30    29.82F
WHEATON        MOSUNNY   82  55  39 S22G32    29.82F
MORRIS         MOSUNNY   84  52  32 S20G26    29.84F
ALEXANDRIA     PTSUNNY   81  51  35 S18G24    29.90F
ELBOW LAKE     FAIR      82  55  39 S24       29.84F
WADENA         MOSUNNY   81  54  39 S23G33    29.87F
GLENWOOD       MOSUNNY   81  48  32 S21G31    29.90F
APPLETON       MOSUNNY   86  45  23 S16G23    29.85F
BENSON         MOSUNNY   84  45  24 SW16G22   29.87F
ORTONVILLE     MOSUNNY   82  54  36 S18G24    29.84F
MADISON        MOSUNNY   84  46  26 S18G31    29.85F
WILLMAR          N/A     84  48  28 S16G24    29.91F
$$
MNZ033>034-036-042>043-049>051-058-059-282300-
   Central Minnesota

CITY           SKY/WX    TMP DP  RH WIND       PRES   REMARKS
ST CLOUD       CLOUDY    80  53  39 S16G28    29.92F
SAUK CENTRE    FAIR      81  50  33 S23       29.91F
PAYNESVILLE    PTSUNNY   78  49  35 E15G21    29.92F
AITKIN         PTSUNNY   81  50  34 S17G25    29.90F
PINE RIVER     PTSUNNY   81  54  39 S18G31    29.92F
BRAINERD       CLOUDY    78  52  40 S15       29.91F
STAPLES        PTSUNNY   81  50  34 S20       29.89F
LONG PRAIRIE   FAIR      81  50  34 SE18      29.91F
LITTLE FALLS   PTSUNNY   81  50  34 S14       29.92F
LITCHFIELD     PTSUNNY   82  50  32 S7        29.93F
BUFFALO        PTSUNNY   83  50  31 S13G22    29.96F
MAPLE LAKE     PTSUNNY   83  54  36 S8G18     29.95F
$$
MNZ037-044-045-052-053-282300-
   East Central Minnesota

CITY           SKY/WX    TMP DP  RH WIND       PRES   REMARKS
PRINCETON      CLOUDY    84  55  37 S13G22    29.94F
MORA           PTSUNNY   79  52  38 S10G20    29.96F
CAMBRIDGE      PTSUNNY   84  61  45 S15G23    29.94S
RUSH CITY      PTSUNNY   81  51  35 S14G20    29.95F
MOOSE LAKE     PTSUNNY   82  52  34 SW10G21   29.92F
HINCKLEY       FAIR      82  55  39 S13G22    29.95F
CLOQUET        MOSUNNY   55  45  67 E10       29.98F
MCGREGOR       PTSUNNY   81  52  36 S17G25    29.93F
$$
MNZ071>073-080-081-089-090-097-098-282300-
   Southwest Minnesota

CITY           SKY/WX    TMP DP  RH WIND       PRES   REMARKS
MONTEVIDEO     MOSUNNY   86  46  25 SW20G25   29.88F
GRANITE FALLS  MOSUNNY   86  47  25 SE21G28   29.90F
CANBY          MOSUNNY   83  48  29 S14G26    29.87F
MARSHALL       SUNNY     84  46  26 S24G33    29.89F
REDWOOD FALLS  MOSUNNY   83  50  31 S24       29.91F
OLIVIA         MOSUNNY   81  45  28 S17G25    29.91F
PIPESTONE      MOSUNNY   81  52  36 S23G30    29.91F
WINDOM         PTSUNNY   81  50  34 S16G22    29.95F
WORTHINGTON    PTSUNNY   81  55  41 S24G30    29.95S
JACKSON        PTSUNNY   81  54  39 S16G23    29.98F
TRACY          MOSUNNY   83  49  30 S17G25    29.92F
SLAYTON        MOSUNNY   82  49  31 S23G33    29.94F
$$
MNZ065>067-074>077-082>085-091>093-282300-
   South Central Minnesota

CITY           SKY/WX    TMP DP  RH WIND       PRES   REMARKS
MANKATO        PTSUNNY   82  52  34 S14G21    29.97F
NEW ULM        MOSUNNY   81  46  30 S18G24    29.94F
FAIRMONT       PTSUNNY   81  48  32 S22G30    29.97F
GLENCOE        MOSUNNY   85  52  31 S12G22    29.94F
FARIBAULT      PTSUNNY   81  52  36 S13G24    30.00F
OWATONNA       PTSUNNY   81  46  30 S15G22    30.00F
WASECA         PTSUNNY   82  50  32 S16       30.01F
ALBERT LEA     MOSUNNY   82  50  32 S20       30.00F
$$
MNZ078>079-086>088-094>096-282300-
   Southeast Minnesota

CITY           SKY/WX    TMP DP  RH WIND       PRES   REMARKS
ROCHESTER      PTSUNNY   79  53  40 S18G29    30.04F
RED WING       MOSUNNY   82  50  32 S9G22     30.00F
STANTON        MOSUNNY   82  50  33 S13G22    29.98F
DODGE CENTER   PTSUNNY   81  50  34 S21       30.03F
WINONA         PTSUNNY   81  54  39 S9G16     30.04F
AUSTIN         MOSUNNY   79  54  41 S14G22    30.02F
PRESTON        MOSUNNY   77  52  41 S17G24    30.05F
$$
ABBREVIATIONS USED IN REMARKS
   TC - TEMPERATURES IN CELSIUS
  WCI - WIND CHILL INDEX
   HX - HEAT INDEX
  VSB - VISIBILITY
$$


USA.gov is the U.S. government's official web portal to all federal, state and local government web resources and services.